Theta_e
310 310 312 312 312 312 311 311 308 309 310 312 315 307 302 302 297 307 309 310 306 302 292 293 291 288 289 292 291 291 290 288 288 289 290 289 291 290 290 289 288 288 288 288 287 287 285 286 284 286 286 284 283 285 284 283 285 284 287 287 285 284 281 278 280 283 282 283 284 284 284 284 280 280 281 279 275 275 274 273 274 270 270 269 268 266 270
311 311 311 311 312 310 310 310 309 306 307 315 316 306 302 301 300 302 309 312 304 304 290 288 288 288 291 292 289 291 291 291 291 289 290 289 287 289 289 290 290 288 289 288 285 288 283 286 285 285 284 285 284 284 284 283 285 285 284 282 286 281 282 280 276 276 279 280 280 280 280 281 281 279 278 278 278 277 275 273 273 269 271 271 267 262 267
311 312 311 311 310 310 310 312 309 308 303 311 315 305 305 299 305 304 303 306 305 296 296 291 289 287 288 288 288 290 290 291 290 291 290 290 288 286 288 288 289 289 289 288 288 288 285 283 283 282 284 284 283 284 282 282 285 286 285 283 285 283 281 279 273 270 268 268 270 272 275 278 280 278 277 276 276 274 273 270 271 267 271 271 267 265 272
310 309 311 310 310 311 311 311 310 306 306 303 316 305 306 301 291 299 299 301 299 296 298 296 292 287 287 286 286 288 288 289 291 292 290 289 289 288 289 289 287 289 288 288 287 286 286 284 283 283 284 283 285 285 284 284 286 283 283 281 283 283 283 281 278 275 273 275 277 281 282 279 275 278 278 275 276 276 275 275 271 268 269 267 270 270 270
309 310 311 310 311 311 311 312 309 309 307 306 313 305 305 303 295 294 291 299 295 293 296 293 294 290 293 287 286 285 288 289 289 292 288 290 290 290 289 289 288 287 288 286 286 287 285 285 282 281 282 284 284 284 286 285 284 281 281 281 281 282 281 281 279 278 278 279 279 281 281 277 278 277 276 276 274 274 272 270 268 273 269 264 271 271 268
309 310 310 310 311 311 311 311 309 308 306 302 318 301 300 298 291 294 293 295 291 291 290 294 292 292 293 286 288 287 288 288 285 289 289 289 288 289 289 289 289 288 286 287 284 286 286 285 282 280 279 283 284 284 285 285 284 282 284 283 281 279 279 279 277 277 279 280 280 281 280 279 277 277 276 275 275 274 271 271 273 272 268 265 270 271 268
309 309 309 309 310 310 310 310 310 307 307 305 314 303 296 298 293 294 295 293 285 289 289 292 295 292 291 288 290 287 288 287 289 289 289 289 288 288 285 288 288 288 288 288 284 285 282 283 282 279 283 282 283 283 284 285 285 285 283 283 280 279 280 279 278 276 277 279 280 280 278 277 277 276 276 276 275 274 274 273 274 272 270 271 270 270 270
309 309 309 310 310 310 310 309 310 306 301 309 308 303 299 295 296 291 294 292 288 286 287 290 294 289 290 289 289 289 289 288 289 289 289 286 287 290 288 289 289 289 288 287 284 285 285 283 282 283 281 283 282 284 283 284 284 285 281 282 282 279 278 277 278 275 277 280 279 279 278 276 274 275 276 276 275 275 274 273 272 272 271 271 271 269 269
308 309 309 309 309 310 310 310 307 307 307 315 308 298 298 299 300 300 296 289 287 288 288 292 293 291 292 291 288 290 289 290 290 289 290 289 289 290 288 289 288 288 288 287 286 288 287 286 286 285 284 282 285 283 282 284 283 283 282 281 281 280 278 277 277 274 276 279 278 277 277 274 274 274 275 275 273 270 272 270 272 270 268 269 269 267 268
307 308 309 308 309 309 309 309 305 307 305 311 305 299 295 299 296 300 304 291 287 289 288 290 294 289 290 291 291 291 291 290 290 288 290 290 290 291 290 290 288 288 286 285 287 288 288 288 288 287 288 287 287 286 285 285 283 283 281 277 279 278 278 277 275 272 274 278 277 276 275 273 271 272 275 274 274 274 273 273 273 272 272 268 265 266 272
307 307 307 307 308 309 309 310 307 305 313 314 306 298 298 305 300 301 304 291 289 288 289 292 292 288 290 290 290 289 290 290 289 287 287 291 291 289 290 290 288 287 286 287 288 289 288 288 288 288 288 287 286 286 286 286 284 282 282 280 278 275 278 277 277 271 273 276 276 276 273 268 270 277 278 275 272 272 270 270 271 272 273 270 272 272 274
306 306 306 306 306 307 306 306 305 303 306 311 314 305 304 301 310 311 303 291 288 288 291 289 287 289 290 289 290 291 290 290 290 289 288 290 290 289 290 290 287 286 286 288 288 289 289 290 289 289 288 287 287 287 286 284 283 284 282 280 279 279 279 277 275 272 271 274 274 272 269 269 275 278 278 276 275 274 272 272 272 273 273 273 272 272 272
306 306 305 305 305 305 305 306 306 305 304 317 317 305 296 291 311 307 305 294 289 289 292 286 283 284 286 289 289 288 288 288 288 288 289 290 290 290 291 290 288 288 288 288 288 287 286 284 284 285 284 286 286 286 285 283 282 283 284 282 279 278 277 277 276 275 275 273 271 264 268 275 277 277 276 278 276 275 273 270 272 273 273 273 271 272 273
306 306 305 304 304 304 304 305 305 305 304 307 302 296 293 297 312 306 303 295 288 286 286 286 284 285 286 289 289 288 288 288 286 287 288 290 289 290 291 290 289 289 290 289 287 285 284 285 282 282 281 282 281 280 283 282 281 281 281 282 283 280 279 278 273 277 268 270 269 269 275 275 275 274 273 273 270 271 269 264 268 273 274 273 271 272 272
306 306 305 305 304 304 303 304 304 304 303 304 302 300 300 298 302 309 303 300 289 287 286 291 288 288 289 288 290 288 288 288 287 289 289 288 289 289 289 288 289 291 290 287 285 284 283 283 279 279 280 278 275 277 280 279 280 281 280 281 281 281 276 277 273 273 273 269 268 269 269 267 271 273 276 277 276 275 274 270 267 274 274 274 273 271 272
306 305 305 305 305 305 305 305 304 304 304 305 304 300 298 297 296 308 307 297 292 289 290 291 290 290 290 289 289 288 289 289 289 289 287 288 289 287 287 288 289 290 288 285 284 283 283 280 278 278 277 278 280 278 277 281 278 279 281 280 281 280 280 278 274 272 271 269 266 267 265 270 273 273 275 276 276 275 274 269 265 274 274 274 273 271 272
306 305 305 304 304 304 304 304 305 304 303 304 305 302 299 299 299 308 304 298 295 290 290 290 291 291 291 288 288 289 290 289 289 287 287 287 288 289 285 286 287 288 287 284 285 283 282 281 279 280 281 281 278 277 281 280 278 277 278 279 277 277 276 276 274 271 272 270 267 265 268 267 272 274 275 276 276 275 271 262 264 272 273 274 273 272 272
306 305 305 304 304 304 304 303 303 304 304 305 306 301 298 300 299 302 306 300 292 290 291 289 291 292 291 291 290 290 291 291 291 289 288 288 288 289 288 286 286 287 289 284 285 283 281 280 279 279 278 281 281 281 275 279 275 276 276 278 276 275 275 275 271 271 272 271 270 272 272 276 275 275 276 276 276 273 265 260 266 273 274 274 274 273 273
305 305 305 305 305 304 304 303 304 303 304 304 309 308 301 300 301 304 306 300 298 290 290 288 288 288 288 288 291 291 292 292 291 288 289 288 288 289 289 289 288 285 285 284 284 283 281 280 281 280 279 280 281 277 281 277 276 280 278 276 276 277 275 274 274 271 269 270 268 269 272 273 274 277 276 276 271 262 261 270 275 274 273 274 274 273 273
304 304 304 304 304 304 304 303 303 303 304 304 305 299 297 300 301 300 305 293 291 288 289 288 288 290 289 291 291 291 290 292 290 289 287 286 288 288 288 286 288 287 286 286 282 282 280 280 280 281 279 281 281 281 279 279 279 277 277 277 275 274 270 272 272 272 273 272 268 266 262 272 277 276 275 276 266 268 273 274 275 275 274 274 273 273 273
304 304 303 303 304 304 304 304 303 303 303 303 303 302 298 298 301 304 307 300 291 288 287 288 289 289 289 287 286 287 290 291 290 290 290 288 290 288 284 283 286 286 284 285 281 282 282 281 281 279 282 280 281 281 277 277 277 280 278 275 274 277 272 272 274 273 268 268 265 264 272 276 278 276 269 272 274 275 275 274 272 274 275 274 273 273 274
304 304 303 303 303 303 303 303 304 303 304 304 303 302 296 299 301 299 297 297 293 289 288 290 291 289 288 289 288 288 287 288 288 287 288 289 292 288 288 288 288 288 287 287 285 283 285 282 283 280 280 281 283 279 279 276 276 277 278 277 272 278 275 276 271 275 270 269 272 276 277 278 279 277 276 276 277 277 277 275 274 273 274 275 273 273 274
303 303 303 303 303 303 303 303 303 303 303 304 305 303 298 299 300 301 304 291 291 290 290 290 289 287 289 288 290 290 289 289 289 288 288 288 289 290 288 288 289 289 289 288 286 286 285 284 282 283 281 283 280 278 278 277 277 276 274 279 279 279 279 279 276 275 278 279 279 280 279 277 277 278 278 276 276 277 277 275 274 275 275 275 273 274 274
302 302 302 302 303 304 302 302 302 302 302 304 304 302 299 299 297 302 299 296 291 286 289 290 290 288 288 289 289 290 290 289 288 289 289 287 287 288 291 290 291 290 290 289 287 285 285 284 282 281 278 282 280 279 277 276 277 279 278 277 278 278 278 277 273 277 273 270 278 277 276 277 276 276 278 278 278 277 277 275 275 275 275 275 275 274 274
301 301 301 301 301 301 301 302 302 302 302 301 302 302 302 300 298 299 302 290 291 294 288 288 287 288 291 291 291 289 288 288 289 288 289 287 287 287 287 288 288 287 287 288 287 287 286 282 282 280 278 282 281 278 283 278 279 280 277 279 277 275 278 275 276 275 273 273 276 277 277 277 277 277 276 275 276 276 277 276 276 276 276 276 275 275 273
302 302 301 301 301 302 301 301 301 301 301 301 302 302 298 297 298 298 300 299 298 294 288 287 288 289 287 289 289 289 289 289 287 287 287 288 287 286 287 288 290 289 289 288 287 286 285 284 283 282 280 281 282 280 280 281 280 281 278 278 279 277 277 272 275 272 274 277 278 277 277 277 277 277 277 277 276 276 276 276 276 276 275 275 275 275 274
303 302 303 303 302 301 301 300 301 301 301 302 302 301 299 298 299 298 302 302 297 290 290 287 288 290 290 289 289 290 289 288 287 286 287 287 287 288 286 287 289 290 288 287 286 285 285 284 282 282 282 281 280 279 278 280 279 277 276 278 278 277 274 277 275 272 272 272 274 275 269 269 273 276 276 276 277 276 275 276 275 275 274 274 273 273 274
301 302 302 302 303 302 301 299 299 300 300 301 301 301 302 299 298 299 298 298 300 293 289 287 288 289 292 290 289 287 287 287 286 286 286 286 286 286 286 288 290 288 288 287 285 285 285 283 283 281 280 280 279 279 279 280 278 278 278 279 279 276 276 275 272 272 271 275 276 276 275 275 275 276 277 277 277 276 275 275 274 274 275 274 273 272 272
301 301 301 301 301 302 302 301 297 296 296 300 304 304 302 302 302 299 299 300 302 294 290 290 291 290 287 289 288 288 287 287 287 287 287 287 287 287 288 289 289 287 286 286 286 286 285 284 283 282 280 283 280 279 279 276 276 275 279 280 279 279 279 277 277 276 277 278 277 277 275 273 275 276 276 276 277 277 275 275 275 275 275 274 273 273 271
301 301 301 301 301 301 300 302 301 297 296 302 304 306 301 298 301 299 298 297 299 299 290 288 287 286 290 290 291 290 288 287 287 288 288 289 289 289 288 288 287 287 286 286 286 284 285 284 284 284 284 285 280 281 277 278 276 279 280 280 280 280 279 280 280 277 275 278 278 277 276 276 277 277 277 278 278 277 275 275 275 275 274 274 273 272 272
301 301 301 301 301 301 301 300 301 299 297 303 306 294 294 292 299 300 297 299 298 300 292 291 287 288 287 290 291 288 288 288 288 288 288 288 287 287 286 286 287 287 287 287 286 285 285 284 283 283 284 283 282 279 278 276 275 278 278 279 279 279 279 279 280 280 279 278 278 278 277 277 277 277 277 277 276 276 276 275 276 275 274 274 273 273 272
301 301 301 301 301 301 301 301 299 299 303 302 298 294 292 294 296 297 297 296 299 302 292 287 285 286 285 287 288 288 288 287 286 288 287 288 287 287 286 287 286 288 288 285 286 285 284 284 284 282 282 281 281 278 278 277 276 277 278 278 279 279 280 279 279 279 279 279 277 275 275 275 277 274 273 276 276 277 276 275 275 275 275 274 274 274 273
302 301 301 302 301 301 301 300 300 299 296 297 299 300 299 298 298 296 294 298 297 287 291 290 284 283 284 285 285 288 288 287 287 287 286 287 285 287 286 287 287 286 288 286 284 282 284 283 283 281 281 280 278 276 276 276 278 279 278 279 279 279 279 280 279 279 279 278 278 273 272 273 275 276 277 277 277 276 275 275 275 275 274 273 272 272 272
302 302 301 301 301 300 299 300 300 300 301 301 297 296 299 298 298 295 294 298 291 289 291 288 284 284 285 287 286 287 289 285 286 285 284 286 285 286 286 286 287 284 285 284 285 285 284 283 281 282 281 279 279 277 274 278 279 278 279 279 280 279 279 278 278 277 278 278 278 278 277 277 278 278 277 276 275 276 277 276 275 273 273 272 271 271 272
302 301 301 301 300 302 302 299 304 301 298 298 299 300 299 297 296 296 297 295 292 289 287 285 287 285 285 286 285 285 287 286 285 284 283 285 286 284 285 284 285 283 283 286 284 283 282 280 281 279 278 280 277 274 278 279 278 279 279 279 279 279 278 276 276 277 278 278 278 277 277 277 276 275 275 275 275 276 275 275 274 273 271 271 271 271 271
302 300 299 299 301 298 303 304 299 301 297 294 296 297 296 298 296 298 298 297 296 290 286 282 286 282 282 281 282 285 288 285 284 284 284 284 285 284 283 283 281 283 284 282 281 282 280 281 280 278 280 276 276 278 278 278 278 278 279 278 279 278 277 277 277 278 278 277 277 277 277 277 276 275 275 275 275 275 275 274 273 273 272 271 270 271 270
300 300 298 297 297 303 296 293 295 298 293 298 298 294 295 297 298 300 299 295 292 291 288 287 285 282 281 282 284 286 286 283 285 284 284 283 282 283 282 283 281 283 282 280 280 278 280 282 279 277 277 276 278 279 279 279 279 278 278 279 280 280 279 279 279 278 277 276 276 276 276 275 275 275 275 274 274 275 274 272 272 271 270 270 270 269 270
298 297 302 302 305 293 294 295 296 297 295 295 295 296 294 293 292 290 289 287 286 289 286 288 282 282 284 282 281 286 285 284 285 281 283 282 282 281 280 281 280 279 276 277 277 280 279 278 276 275 276 281 281 280 280 280 281 281 280 280 280 280 280 279 278 277 275 274 273 274 274 274 274 274 273 273 273 273 273 273 273 272 272 271 270 270 269
299 305 302 295 294 292 292 294 297 292 298 297 297 292 289 287 290 287 283 282 286 285 284 285 281 283 283 283 284 286 283 280 281 283 280 284 281 278 282 278 280 279 277 277 277 280 276 276 273 274 275 279 278 280 281 282 281 281 281 281 281 280 280 279 279 277 275 275 275 275 275 273 273 273 274 273 273 274 274 273 272 272 271 271 270 269 269
305 303 294 294 293 293 299 297 292 294 296 293 290 292 285 285 288 283 285 285 284 283 284 282 280 281 281 280 280 282 285 282 279 280 279 282 285 278 280 279 279 276 273 273 276 279 275 273 274 275 277 280 280 281 281 281 280 281 281 281 281 281 280 280 279 279 279 278 278 277 277 276 275 274 273 273 273 272 272 272 272 271 271 270 270 269 268
295 294 295 293 293 299 297 296 297 292 291 291 290 285 285 284 281 278 280 282 280 281 280 281 281 281 280 280 281 280 283 284 282 281 281 278 284 282 278 274 279 273 272 273 277 276 276 275 275 274 277 280 280 281 281 281 280 280 281 281 281 280 280 280 280 280 279 278 277 277 277 277 276 275 274 274 273 272 272 271 271 270 270 269 268 268 269
295 294 294 297 294 297 295 294 291 290 287 287 285 278 277 280 282 281 282 281 280 281 282 281 281 282 281 281 281 281 281 280 280 280 279 277 281 277 274 276 276 272 271 275 275 275 275 271 273 275 280 280 281 282 281 280 280 280 280 280 280 280 280 280 279 279 279 278 278 277 277 277 276 275 274 273 273 272 271 270 270 270 269 270 270 269 269
293 292 293 295 296 292 290 293 287 286 280 280 278 279 279 277 277 278 280 280 279 280 282 281 282 283 280 279 281 280 280 281 280 280 278 275 279 277 274 274 273 272 274 276 275 274 273 273 274 278 280 280 281 281 281 281 280 280 280 280 280 280 280 280 279 279 279 279 278 277 277 276 275 275 275 274 272 271 271 270 270 269 269 269 269 269 269
295 294 296 291 291 288 290 282 287 286 281 278 279 278 278 279 281 279 280 283 281 282 281 281 282 281 281 280 279 280 281 282 281 279 277 274 274 272 272 272 273 276 276 274 273 273 274 274 276 278 280 281 281 281 280 280 280 280 279 280 280 280 280 280 280 279 278 279 279 278 277 276 275 275 274 273 272 270 270 270 270 269 269 269 268 268 268
292 291 288 287 284 286 286 280 286 282 280 280 282 282 282 281 283 282 283 280 281 282 279 279 281 280 280 280 279 278 279 278 282 277 272 274 274 273 272 274 275 275 273 272 273 274 275 275 279 280 280 279 280 280 281 280 280 279 279 279 279 279 279 279 278 278 278 278 278 278 276 276 275 274 273 272 271 271 270 269 269 269 269 268 268 267 268
288 288 286 281 279 282 282 278 277 280 283 283 284 284 285 284 284 283 277 275 280 280 281 279 278 279 280 279 278 277 276 276 277 274 273 274 273 273 275 276 275 272 271 272 270 273 274 277 279 279 280 280 280 280 280 280 280 280 279 277 278 279 279 278 278 278 278 278 278 277 276 275 274 273 271 271 271 270 270 270 270 269 268 267 266 266 267
287 285 286 284 280 280 282 281 282 282 281 282 279 278 281 280 278 278 277 276 279 278 277 274 277 278 278 279 278 276 275 276 274 274 274 272 272 274 276 273 270 270 269 270 271 273 275 278 280 280 280 279 279 279 279 279 280 279 278 279 278 278 278 278 277 277 277 277 277 276 275 274 273 272 271 269 269 270 270 269 269 268 267 267 267 267 266
285 284 286 282 280 281 283 281 278 278 277 278 276 275 275 275 278 279 276 276 278 278 278 278 279 279 278 277 277 277 275 273 273 274 274 272 274 272 271 270 271 271 271 272 275 278 278 280 280 279 279 279 278 277 278 278 279 279 278 278 278 277 277 276 276 276 276 276 275 275 275 273 271 270 269 269 269 269 269 269 268 268 267 267 266 265 264
286 284 284 279 278 279 281 279 280 286 279 275 274 275 275 278 280 279 275 275 278 279 277 278 279 278 277 274 274 275 274 275 273 272 273 273 271 268 268 270 268 271 275 275 277 278 279 280 280 279 279 278 278 278 278 279 279 278 278 277 276 276 276 275 275 275 275 275 275 274 273 271 270 269 269 268 267 267 268 268 268 268 267 266 265 264 263
286 283 283 282 281 281 277 276 280 286 281 276 277 278 274 276 279 278 276 276 274 275 276 276 278 277 275 273 273 272 273 274 272 273 272 272 271 270 271 271 273 273 277 279 279 280 281 281 280 278 278 277 277 278 278 278 277 277 277 276 276 275 275 275 274 275 274 275 274 273 271 270 269 268 267 267 267 268 267 267 267 266 266 265 264 263 262
283 280 277 278 281 282 283 283 284 283 285 283 282 281 277 281 281 278 277 276 274 277 279 279 276 275 276 273 271 273 272 272 272 273 273 273 272 271 273 274 278 280 280 281 282 282 281 280 279 278 277 277 277 277 277 277 276 275 275 275 275 275 274 274 274 274 274 274 273 270 269 268 268 268 268 268 267 267 266 266 266 265 265 264 263 263 262
281 282 280 279 277 278 279 281 282 281 281 280 280 280 279 281 279 276 276 278 278 280 280 276 275 275 272 273 274 274 273 273 272 271 272 274 273 274 275 277 280 281 280 280 280 281 280 280 279 277 277 276 276 276 275 274 274 274 275 274 274 273 272 272 273 273 272 271 270 269 268 268 268 267 267 267 266 265 264 264 265 264 264 263 263 263 262
Wind_Speed
1 0 1 1 1 2 1 2 1 1 4 2 1 2 1 4 4 1 7 7 4 5 8 5 5 5 2 3 3 1 2 3 0 0 2 1 1 2 1 3 1 3 2 2 1 2 2 2 2 3 2 2 3 1 3 2 4 4 2 3 3 1 2 6 7 7 7 5 5 7 6 6 6 4 4 3 3 1 3 5 8 10 12 10 12 14 15
2 1 0 0 0 0 1 1 2 1 6 2 1 1 3 2 3 3 5 5 2 2 4 3 3 3 2 3 4 2 2 2 1 1 2 2 0 2 2 3 2 1 1 2 1 2 1 2 2 2 0 1 2 1 2 2 2 5 3 2 6 3 2 5 8 7 3 3 4 5 4 3 2 3 3 2 3 2 4 4 3 6 9 11 12 20 16
2 1 2 1 2 2 2 2 2 3 3 3 2 1 2 3 2 3 7 11 6 4 3 6 5 2 3 2 3 1 2 3 3 2 2 1 1 1 1 2 1 1 1 1 1 1 2 1 2 0 0 0 3 3 2 2 2 3 3 2 4 3 4 4 6 9 11 11 11 10 10 10 8 8 5 4 3 4 3 6 7 11 9 16 12 17 20
2 2 2 3 3 2 1 1 1 1 2 3 1 2 1 1 3 3 6 8 8 7 2 5 8 6 3 3 0 1 3 1 1 3 3 1 0 2 1 2 2 2 2 3 4 3 3 3 0 1 1 1 2 2 3 3 1 2 2 4 3 2 2 1 2 2 7 10 11 13 12 12 9 10 4 3 4 1 2 5 9 12 16 15 15 15 25
1 2 2 3 2 2 1 1 1 1 2 6 2 3 3 1 3 2 2 2 10 5 5 4 0 3 2 1 1 1 2 2 2 1 1 2 2 1 1 1 2 1 3 3 3 2 2 2 1 2 3 0 1 4 2 3 3 2 2 4 2 2 3 1 3 4 10 14 15 14 12 13 15 11 7 5 3 4 3 5 10 12 13 17 12 21 23
1 1 2 1 1 1 1 2 1 1 0 3 2 4 5 2 1 0 2 1 2 2 2 4 4 3 2 2 1 1 2 1 0 1 1 1 2 2 3 1 2 2 4 4 2 4 4 3 2 1 2 2 2 2 4 2 4 5 1 2 2 2 3 2 1 9 9 14 14 13 11 11 11 10 9 6 3 5 7 11 10 10 10 17 27 28 27
1 1 1 1 1 1 2 2 1 1 4 2 2 4 3 4 5 3 3 0 2 3 2 3 5 6 4 2 0 1 0 1 2 2 1 1 1 1 1 1 2 1 2 3 3 5 4 1 1 2 0 2 1 2 2 3 2 2 0 1 2 2 1 2 1 10 14 13 10 7 10 10 9 7 7 3 4 6 9 14 12 13 16 20 23 26 28
2 1 1 0 1 1 2 3 2 1 3 3 5 5 3 3 3 2 4 8 4 2 1 1 2 3 2 1 2 2 1 1 2 1 1 0 1 1 3 3 1 1 2 3 2 3 4 3 3 1 1 1 2 2 1 1 2 1 1 2 1 3 1 3 2 5 9 4 5 6 10 9 9 4 4 3 4 8 9 11 14 15 17 18 22 26 24
5 4 3 2 1 2 3 4 3 3 4 1 4 2 4 3 3 4 7 4 2 1 1 1 1 2 1 1 1 1 0 1 1 1 1 1 2 3 3 3 1 0 3 2 4 4 5 6 5 1 2 3 3 2 1 4 0 1 1 2 3 1 2 3 1 6 6 2 12 15 9 2 3 4 5 4 6 7 7 8 12 13 19 24 23 19 15
8 7 6 5 4 2 2 3 3 2 4 2 3 3 1 2 1 1 1 3 1 2 0 1 2 1 2 2 2 1 2 2 1 2 2 1 1 2 2 3 4 2 2 3 3 5 5 4 3 3 2 2 3 4 4 4 2 1 2 0 1 2 4 4 4 6 6 9 10 18 4 3 4 6 5 3 6 9 13 14 14 14 18 17 15 16 17
10 10 9 8 7 6 4 3 0 2 3 2 4 3 3 2 3 1 2 4 0 1 1 2 2 1 0 1 2 0 1 0 1 2 1 2 2 1 2 2 4 3 0 2 1 3 3 3 3 2 2 3 4 4 4 5 6 3 1 1 2 1 3 2 2 4 7 13 14 14 5 6 2 6 5 3 6 10 15 16 21 21 14 12 15 18 19
13 12 11 10 9 7 6 4 2 1 2 1 3 5 2 1 1 1 1 3 1 0 1 1 2 2 0 1 2 1 2 1 1 2 1 2 2 1 1 2 2 2 2 2 3 5 6 6 7 6 6 5 5 4 5 7 4 2 1 2 3 2 3 2 1 3 7 10 11 8 4 5 6 6 5 4 7 10 15 20 17 15 16 18 17 17 22
14 14 13 12 11 10 8 7 6 6 2 0 2 5 2 2 1 2 3 4 2 0 1 1 0 1 1 1 1 2 2 2 0 1 2 3 0 2 2 2 2 2 6 7 5 2 2 2 3 4 5 5 6 5 5 4 4 1 1 3 2 4 3 3 2 3 6 5 6 6 7 4 5 6 3 3 8 11 17 19 18 16 17 13 14 21 23
15 16 16 15 15 14 14 12 12 11 9 4 7 4 2 2 2 3 2 4 2 1 0 3 1 0 1 1 2 2 1 1 1 0 1 2 2 2 3 3 2 4 4 5 3 3 3 3 1 2 3 4 3 4 4 2 2 1 1 2 2 3 2 1 4 1 4 7 7 9 14 8 7 2 5 7 12 15 14 17 19 17 9 9 18 22 24
15 14 14 14 14 15 16 18 18 17 15 12 11 6 4 3 2 2 2 4 4 2 2 1 2 3 2 1 1 0 1 0 1 1 2 2 1 4 3 2 1 3 4 4 1 3 2 2 3 4 1 2 2 0 5 4 2 2 2 1 2 3 2 3 3 1 1 6 9 8 5 5 3 7 3 7 9 11 13 14 18 7 6 17 18 24 28
16 15 15 14 13 11 10 8 9 8 9 8 10 8 6 4 3 2 4 4 5 3 1 3 3 1 2 1 1 1 2 1 1 1 1 3 2 5 4 3 2 1 2 2 2 2 2 2 3 2 4 2 1 3 2 4 3 4 4 3 2 2 2 1 2 3 4 4 5 6 7 5 6 3 6 9 11 10 15 11 12 5 17 19 22 25 27
16 15 14 14 13 13 12 10 7 4 4 3 6 5 6 7 4 2 4 5 6 3 2 2 2 2 2 3 2 1 1 2 2 2 1 1 2 3 4 1 1 2 5 3 2 2 2 3 1 3 4 2 2 2 5 3 3 3 5 5 6 2 0 2 3 3 4 5 5 5 4 7 5 7 10 14 12 15 11 10 7 13 19 21 23 26 26
16 15 14 13 13 13 12 11 11 10 11 6 8 8 5 7 4 4 4 5 5 2 3 3 3 1 1 3 2 2 1 2 2 2 2 2 2 2 3 4 3 5 4 2 0 3 2 2 4 3 5 3 2 2 3 2 3 3 3 4 3 2 2 2 4 5 5 6 7 6 5 3 6 7 11 14 14 12 8 11 13 17 20 22 22 22 23
15 14 13 12 12 11 11 11 5 4 5 7 3 6 7 9 7 4 5 4 4 4 3 3 1 2 2 3 1 1 2 1 3 2 2 1 2 1 2 1 2 1 4 2 1 2 2 2 1 1 3 1 2 2 4 2 2 1 1 5 2 2 2 3 3 4 5 4 6 7 6 5 5 8 13 8 9 6 9 11 15 18 20 20 20 22 21
16 15 14 14 13 12 12 12 12 11 10 7 4 8 2 9 5 3 2 6 4 6 2 2 2 3 3 3 1 1 1 3 0 2 1 3 2 1 2 1 3 3 3 3 2 1 1 3 1 1 2 3 1 3 3 2 2 2 1 1 2 1 0 4 3 3 5 2 6 7 5 2 8 13 9 5 7 9 10 14 17 17 18 20 20 17 19
16 16 15 15 14 14 13 12 11 10 8 6 4 8 8 10 10 6 4 8 10 9 4 3 2 5 2 2 2 1 3 2 3 1 3 2 2 3 3 3 3 2 2 1 4 1 1 2 0 1 1 3 1 2 3 2 2 2 1 3 3 2 2 3 1 3 5 5 2 4 4 11 11 8 8 9 9 10 11 12 15 14 15 16 15 15 16
16 16 16 16 16 16 15 14 13 12 10 9 4 8 9 3 5 8 11 13 10 6 4 5 4 5 3 4 2 2 2 2 3 2 3 2 1 1 2 3 2 1 1 2 2 1 1 0 1 1 2 2 2 3 1 3 5 2 1 1 4 8 2 1 4 1 3 5 7 10 12 11 9 8 10 12 12 11 11 12 14 15 13 13 13 16 18
16 16 16 17 16 16 16 16 16 14 15 10 7 8 7 3 4 4 0 16 8 9 5 4 3 3 3 2 2 2 2 0 2 2 3 3 1 2 2 3 1 3 2 1 2 3 3 1 4 2 4 2 2 2 2 5 3 3 2 9 2 4 2 2 3 4 8 13 15 13 10 9 10 9 9 10 10 10 11 13 13 12 14 13 14 17 18
17 17 17 17 15 13 15 15 16 17 18 15 8 9 7 4 2 1 9 7 4 6 2 3 2 2 2 3 1 1 1 1 1 2 2 2 2 1 3 3 3 2 1 2 2 2 1 1 1 1 3 1 0 3 5 4 4 2 1 1 2 5 2 3 3 6 6 5 1 10 12 10 9 11 10 8 8 10 11 12 12 14 15 15 15 16 18
17 18 18 17 17 17 16 15 13 12 11 11 12 8 7 4 3 3 1 4 1 1 3 2 3 1 1 1 1 1 0 1 2 3 2 2 3 2 2 2 3 2 2 3 1 2 1 2 1 1 4 0 0 4 2 3 2 3 3 1 2 2 4 5 8 9 8 12 13 11 6 9 13 10 8 10 11 13 13 12 13 14 16 16 17 17 17
13 13 15 17 16 16 16 15 16 16 14 12 8 6 5 3 3 2 1 5 4 3 4 2 1 1 2 3 0 2 1 0 2 2 3 3 3 3 4 4 2 2 2 1 1 3 1 2 2 1 3 1 1 3 2 0 3 2 4 4 1 4 5 3 3 6 10 13 11 9 13 12 4 3 9 10 11 13 15 15 15 16 18 18 18 17 18
10 9 9 8 9 10 12 15 13 13 13 12 11 8 7 5 5 4 2 1 1 2 3 2 1 2 3 1 1 1 0 1 0 1 2 3 3 3 2 3 4 2 2 1 0 1 0 2 2 2 1 1 1 1 2 2 2 1 3 2 5 2 4 3 4 7 7 7 10 11 10 9 9 12 12 13 14 14 15 15 16 17 18 17 18 19 19
11 10 8 6 5 5 5 5 5 9 12 13 11 8 5 6 4 4 2 2 1 1 3 3 2 2 3 3 2 1 0 1 1 1 1 1 3 3 3 4 3 2 1 2 1 1 2 3 2 1 0 1 1 1 1 1 1 5 6 5 6 5 4 2 4 5 9 10 10 7 8 12 12 14 14 14 14 13 15 15 16 17 16 16 17 19 19
11 11 10 9 5 2 4 5 4 2 3 2 2 4 6 6 4 6 6 4 0 7 6 5 4 2 0 2 4 3 3 1 1 1 1 2 3 3 3 2 3 1 1 2 2 2 2 1 2 1 1 1 2 2 1 3 2 5 4 4 6 2 1 4 8 11 13 11 10 8 9 12 13 13 15 15 13 13 14 15 15 16 16 16 16 17 19
10 10 11 10 10 7 2 6 4 3 1 1 1 0 1 2 5 7 8 5 4 3 4 3 2 1 2 1 2 3 3 3 2 2 2 2 1 1 1 1 0 1 1 1 1 3 1 0 0 1 2 2 2 1 2 1 2 4 5 4 2 1 3 5 6 7 11 10 10 9 10 13 13 13 13 12 11 11 13 16 16 16 16 15 16 16 16
10 10 12 13 13 13 8 6 5 4 3 1 2 1 1 1 2 4 10 4 3 1 3 2 3 1 1 1 1 2 3 1 2 2 1 1 1 0 0 1 0 1 2 1 1 0 0 1 0 1 2 3 2 1 2 1 3 2 3 3 1 3 5 7 7 8 9 10 10 10 11 12 12 12 13 12 13 13 15 15 16 15 15 16 16 15 15
8 9 10 12 14 15 16 12 5 7 2 6 5 2 1 1 4 8 7 3 3 1 2 3 1 0 0 1 2 1 1 0 1 2 2 2 1 1 1 2 1 1 2 1 0 1 0 2 1 0 0 2 1 2 2 3 6 5 4 0 2 4 6 7 8 8 8 9 10 12 12 12 10 11 13 14 16 15 15 16 16 16 15 15 14 14 15
6 7 7 8 10 12 13 14 13 12 9 12 18 15 8 3 6 5 1 3 1 2 1 1 2 0 0 1 1 1 2 2 2 4 1 2 2 2 1 2 2 1 1 2 0 1 1 1 1 1 1 1 1 1 2 5 5 4 2 3 3 5 7 7 8 8 8 8 6 9 12 14 15 15 15 15 15 15 15 16 16 15 16 16 17 17 15
5 5 4 4 4 8 9 10 10 13 10 4 4 5 5 11 5 6 3 1 3 1 2 2 1 0 1 1 1 2 4 3 1 4 2 3 2 2 2 1 0 0 3 2 1 1 1 2 1 1 2 0 1 2 3 2 5 3 4 4 5 6 7 8 9 10 9 8 8 10 13 14 15 14 14 15 15 15 15 15 16 16 17 16 16 15 15
3 3 2 1 2 1 1 3 0 3 4 2 2 0 4 9 5 6 4 1 0 1 3 2 1 1 1 0 0 1 3 1 2 3 2 1 2 2 3 1 1 1 1 1 2 1 1 2 3 2 2 1 1 2 3 4 3 5 6 7 7 7 9 10 9 8 9 9 10 11 12 14 15 15 14 15 15 15 15 15 15 15 16 15 16 16 16
2 2 1 0 1 2 2 2 4 2 2 2 2 1 5 6 3 2 4 6 5 2 2 0 1 2 1 2 3 1 1 0 1 1 1 2 0 2 2 1 1 2 1 2 1 2 0 3 2 2 1 1 1 2 3 4 5 7 8 9 8 7 8 10 13 13 12 11 13 14 15 15 15 16 15 14 14 14 14 15 15 14 15 16 17 17 16
2 2 3 2 1 1 2 1 2 2 1 2 6 10 11 5 2 1 2 3 4 3 3 1 3 2 2 2 3 2 6 3 4 1 1 2 3 1 2 1 1 1 1 1 1 2 2 0 2 2 1 2 3 5 2 3 4 6 8 8 8 8 8 9 10 12 13 14 14 13 12 13 13 12 13 13 13 14 15 16 15 15 16 18 17 15 18
2 3 1 1 0 1 0 0 1 1 4 6 5 1 2 3 0 2 3 3 2 3 4 2 3 0 0 2 2 5 3 1 2 3 1 0 2 0 0 1 1 2 2 1 1 1 2 1 0 1 3 2 3 2 4 4 4 5 7 8 8 8 9 9 9 10 13 14 14 13 13 14 15 14 14 15 15 16 14 13 13 13 13 14 15 15 16
4 0 2 1 0 0 0 1 1 2 2 1 1 0 1 2 1 1 2 1 1 3 2 2 2 1 1 2 0 3 4 3 4 0 2 2 3 2 2 2 1 2 1 1 1 1 2 1 1 2 3 1 3 1 3 4 4 5 6 7 8 8 8 9 9 10 11 11 13 14 13 14 16 17 14 14 14 13 14 14 13 13 13 14 15 15 16
0 0 0 0 1 1 1 2 2 1 0 0 1 0 1 2 2 1 2 0 1 1 2 2 1 2 2 2 3 2 4 3 3 3 2 2 2 2 1 1 1 1 2 1 1 3 1 3 1 2 1 2 2 1 2 2 5 6 7 7 8 9 9 9 11 9 11 12 13 13 13 13 13 13 13 14 14 15 14 13 13 13 14 14 16 17 16
3 1 0 0 0 0 1 2 1 0 0 0 1 2 1 2 2 0 1 1 1 1 1 1 1 1 2 2 1 2 2 2 2 0 1 1 1 1 1 1 0 1 1 0 2 1 1 2 1 1 2 3 3 3 2 4 6 8 8 9 9 9 10 11 11 11 11 11 11 11 10 10 10 12 12 13 14 13 14 14 14 14 15 15 16 16 16
2 1 0 1 0 1 1 0 2 1 1 0 1 1 1 1 0 0 1 1 1 1 0 0 1 3 1 2 2 2 0 2 1 1 1 1 3 1 0 1 1 0 1 1 1 1 0 1 2 2 2 3 3 3 4 7 8 9 10 10 10 9 10 11 12 12 10 11 11 12 11 10 10 10 10 11 11 12 13 12 14 15 15 15 15 16 16
1 1 1 1 0 1 1 0 2 1 1 2 3 1 1 2 1 1 1 1 1 1 1 1 1 1 2 2 1 1 1 1 1 0 1 1 1 0 1 0 0 1 1 1 1 1 1 1 2 2 7 8 5 4 5 6 7 8 9 9 9 10 10 11 11 12 11 9 9 9 9 10 10 8 7 8 11 14 16 16 17 15 14 15 16 15 15
2 1 0 1 0 0 1 1 1 1 1 1 1 0 1 1 0 0 0 1 0 0 1 2 3 4 2 2 2 1 0 1 0 1 0 1 0 1 0 0 1 1 0 1 0 2 2 1 2 4 7 7 4 6 7 7 7 8 9 10 10 11 11 12 11 10 10 9 7 7 9 10 11 8 6 8 10 12 15 19 18 15 15 16 16 16 14
0 1 2 0 1 1 0 1 2 2 1 1 1 0 1 1 1 0 1 1 1 1 1 0 1 0 2 1 1 1 0 1 1 0 1 2 1 1 0 2 1 1 0 2 1 2 1 1 2 5 9 11 11 11 9 8 7 7 9 10 11 13 13 13 13 11 11 10 10 9 8 8 7 8 8 8 10 10 13 15 14 15 15 16 17 16 15
2 1 1 2 3 3 2 0 1 1 1 0 1 1 0 1 1 0 1 2 0 1 0 0 1 1 1 1 1 1 1 1 1 1 0 0 0 1 1 0 1 1 1 1 1 1 2 3 7 8 10 11 12 11 8 7 7 6 7 11 13 13 14 14 12 11 12 12 13 12 12 12 12 10 10 10 10 10 10 10 11 13 15 15 15 17 18
1 1 1 1 1 1 0 1 1 1 1 1 1 2 2 1 2 1 1 1 1 1 1 0 1 1 1 1 0 1 1 1 0 0 1 0 0 1 0 0 2 0 1 2 1 2 3 6 8 8 10 11 10 9 9 8 7 7 9 11 12 13 14 14 14 13 13 12 11 12 11 12 11 9 9 10 10 9 10 11 12 13 13 13 15 17 18
0 0 0 1 1 0 1 1 0 1 1 2 1 1 1 2 2 1 2 1 1 1 1 1 1 1 1 1 1 0 1 1 0 0 1 1 1 0 1 0 1 1 2 2 3 4 6 8 7 8 8 7 7 8 8 8 7 8 10 12 14 14 14 13 13 13 12 12 11 11 11 11 9 9 9 11 12 10 9 10 13 12 13 14 17 19 19
2 1 1 1 0 1 0 0 1 0 2 1 1 1 0 2 0 0 1 1 2 1 1 1 1 0 1 1 0 0 0 0 1 0 0 0 0 0 0 2 2 3 1 3 2 5 7 7 5 5 6 6 5 6 8 7 7 8 10 11 11 11 11 11 12 12 11 9 10 10 11 10 8 8 10 11 12 12 11 11 12 13 14 18 20 20 20
2 2 2 2 0 0 0 2 2 0 2 1 1 1 1 1 1 1 3 2 0 1 1 1 1 1 0 1 0 0 0 1 0 0 0 0 0 0 0 3 2 3 3 1 3 5 5 5 4 5 6 7 7 8 8 8 7 7 8 9 9 9 9 10 10 10 10 10 11 11 11 9 9 9 10 12 13 13 13 12 11 14 16 19 20 20 21
2 4 1 1 1 1 1 2 2 2 2 2 1 1 3 1 0 1 2 2 2 1 1 1 0 1 0 0 1 1 0 1 1 0 0 1 1 1 2 3 3 1 4 3 4 4 4 4 4 4 6 7 7 8 7 7 7 7 7 7 8 8 8 8 8 9 10 10 10 10 9 8 8 10 10 9 9 11 15 15 14 15 18 18 17 19 19
1 2 1 1 1 1 1 0 0 1 1 1 1 0 2 1 1 2 2 2 1 1 0 1 0 0 0 1 0 0 0 0 1 0 2 2 2 2 2 2 4 3 3 5 5 4 3 4 3 3 4 6 7 6 7 8 9 8 9 10 8 8 9 9 9 10 10 10 9 8 8 8 10 9 10 11 12 13 13 14 15 15 17 14 14 17 17
Wind_Direction
156 140 65 43 43 74 93 130 143 282 170 213 159 240 42 29 75 83 335 351 358 40 71 52 49 66 72 233 86 16 72 61 214 289 177 238 221 240 241 15 301 83 346 356 324 346 277 342 340 32 341 88 59 67 332 309 264 233 289 191 114 269 270 296 292 306 111 94 101 128 137 130 106 97 107 80 7 339 286 270 312 297 299 301 310 285 282
182 205 222 173 329 274 217 162 169 143 198 298 217 89 88 93 63 45 39 2 87 339 95 98 80 93 96 91 89 21 41 20 131 68 67 335 6 324 32 178 25 341 334 279 322 22 275 147 290 163 17 166 133 152 258 275 345 334 55 307 28 297 59 323 321 333 320 172 172 182 196 229 299 123 107 90 136 198 237 257 198 274 298 305 307 296 291
193 219 250 258 244 259 266 194 177 189 219 259 289 96 122 118 175 76 29 22 27 79 357 120 117 130 122 124 87 109 130 40 17 349 51 33 358 265 110 31 313 239 303 242 221 228 295 276 116 258 41 90 153 155 194 254 293 54 21 309 319 269 319 353 1 345 332 332 332 331 326 322 326 128 132 139 126 27 328 308 308 290 303 310 291 282 288
216 235 244 254 244 245 238 221 154 163 201 242 329 65 221 329 82 353 32 18 58 76 8 67 120 129 145 91 73 296 114 139 106 304 89 358 105 322 13 181 254 250 227 234 230 217 177 245 349 235 191 132 167 144 175 229 320 61 305 298 286 292 291 298 44 310 291 292 298 303 312 303 301 301 134 143 101 160 270 286 290 300 309 295 275 282 305
218 226 247 249 245 234 197 85 338 326 245 272 96 66 21 27 66 359 97 78 47 69 29 70 71 116 286 115 131 87 50 108 130 332 255 107 305 273 327 326 273 29 271 305 267 237 238 175 311 262 293 46 38 148 205 216 220 195 235 206 229 250 247 122 19 261 264 279 285 293 300 291 296 308 316 131 155 167 211 247 283 305 306 295 290 308 307
237 256 250 270 248 241 214 164 170 29 156 266 289 54 341 65 155 68 338 324 123 127 66 20 72 48 1 88 22 78 127 130 132 142 72 170 196 275 166 270 67 348 353 315 297 330 289 188 254 71 275 295 174 206 189 223 141 195 175 175 349 325 295 107 34 282 279 276 275 275 280 289 296 299 307 276 180 185 248 258 273 292 292 292 304 310 306
340 306 279 262 209 198 177 175 134 174 243 266 282 101 17 49 105 71 303 103 30 10 6 346 93 70 53 107 357 74 232 151 31 0 134 213 167 226 306 57 32 6 304 309 323 341 318 254 146 232 317 252 263 224 183 173 157 214 179 78 96 276 232 56 238 288 288 281 267 273 283 291 287 281 273 241 198 260 283 290 290 284 277 280 293 302 301
19 11 344 17 158 128 150 136 132 188 22 274 73 42 125 162 163 113 49 89 82 22 326 341 268 66 284 78 50 4 264 97 150 175 273 249 121 185 290 359 12 282 317 312 324 328 286 307 300 75 98 253 204 279 353 48 149 336 9 339 80 339 22 93 314 283 292 269 247 263 282 302 289 264 191 214 267 285 282 294 300 300 285 291 301 303 300
34 38 27 35 97 122 139 154 165 206 301 68 78 76 8 78 356 132 133 92 29 278 355 277 333 115 43 44 136 244 26 72 45 68 305 332 3 10 357 355 260 224 274 296 289 341 318 313 304 227 188 306 32 311 41 356 262 136 107 41 331 297 308 139 255 311 309 27 334 318 330 24 282 203 204 247 294 303 311 305 305 308 305 308 306 300 300
48 49 50 50 68 90 131 159 203 295 259 116 120 81 165 80 104 280 96 88 358 11 161 241 259 92 28 22 96 339 95 47 302 184 156 248 345 6 347 351 298 194 239 286 357 354 342 346 23 11 350 29 50 48 37 19 350 334 82 357 318 338 308 319 350 309 293 330 336 320 10 140 159 210 218 265 293 319 319 306 303 302 305 301 306 299 311
54 55 55 58 63 65 77 99 166 270 285 143 102 113 212 163 155 156 75 104 128 41 317 89 23 53 280 98 140 223 100 138 16 313 92 195 131 39 304 303 325 305 353 33 14 3 56 71 74 80 92 98 92 83 100 79 57 45 87 206 164 280 280 343 3 312 289 320 325 304 256 286 25 89 95 126 339 329 316 316 315 313 312 299 302 307 318
55 55 55 58 62 69 75 63 90 286 284 322 102 108 143 270 143 95 148 91 80 276 26 35 4 123 167 118 320 130 162 192 75 30 338 43 72 143 232 254 305 311 92 154 115 116 135 127 110 102 99 101 98 102 94 80 63 71 79 296 265 268 325 338 193 284 304 309 322 333 330 330 116 139 123 36 346 318 311 305 299 302 310 314 316 319 323
58 59 56 57 58 63 66 70 47 62 331 243 68 127 119 296 54 85 78 93 99 340 124 114 198 298 316 284 127 71 36 47 94 295 268 288 263 185 222 310 324 64 160 145 147 185 205 112 111 113 112 125 128 120 83 78 75 13 261 214 275 357 350 337 268 296 287 316 348 330 319 78 150 155 111 349 320 329 324 310 312 319 320 324 321 323 322
56 59 62 64 63 61 62 56 56 49 36 76 87 73 83 280 109 113 114 108 84 88 90 106 211 141 178 69 66 99 51 185 127 127 303 149 305 30 79 48 31 139 162 148 188 279 252 215 232 199 172 188 175 231 161 128 67 47 13 319 286 339 287 350 330 61 335 315 293 272 282 261 135 106 34 4 346 338 335 314 306 315 317 347 326 322 323
52 53 52 52 49 52 60 66 68 67 68 75 101 93 67 26 336 102 126 88 119 130 269 131 123 136 134 103 294 172 209 152 243 190 134 77 224 53 39 52 80 145 159 188 225 209 275 301 277 290 206 215 270 317 146 219 151 195 263 310 3 360 11 0 309 308 291 305 309 310 316 318 96 104 12 12 336 322 311 305 297 311 1 343 333 326 327
54 53 54 53 51 49 42 37 44 60 69 62 80 90 70 16 272 330 82 104 141 131 101 22 354 146 146 90 60 331 335 281 309 236 186 162 114 127 74 38 39 175 170 268 256 271 272 267 277 281 293 313 320 292 233 154 188 177 216 212 146 115 106 237 242 277 320 308 300 299 309 343 127 355 2 346 342 327 313 296 283 20 355 339 337 328 327
52 55 55 56 55 52 48 42 53 67 72 309 102 89 64 4 1 22 87 66 45 80 47 356 330 306 157 136 182 198 257 325 352 313 336 116 135 121 117 94 56 225 198 253 233 245 246 237 227 260 276 180 269 267 272 224 272 179 180 209 170 124 323 308 281 295 288 301 292 303 237 260 318 354 348 343 345 325 301 285 291 352 339 334 329 325 323
50 51 52 52 49 47 40 33 43 59 77 63 89 82 58 7 22 314 68 85 107 97 73 10 313 241 319 16 26 66 294 243 231 189 261 91 171 163 129 174 171 212 248 284 282 268 255 252 284 301 292 86 326 335 276 315 268 283 283 295 258 319 301 292 302 297 300 283 286 291 302 58 47 6 344 349 334 302 303 310 310 332 326 326 325 321 321
51 50 50 49 47 46 45 47 32 327 329 21 79 93 51 10 344 315 109 67 75 108 96 86 356 16 18 275 274 331 1 351 316 303 331 219 95 65 284 315 336 152 183 253 265 273 291 270 126 288 286 158 188 262 351 316 301 71 254 308 300 210 295 212 221 301 312 277 276 282 262 148 248 7 350 351 333 360 315 302 320 319 320 322 323 319 318
47 47 46 46 45 43 43 41 48 55 49 33 121 90 40 4 3 345 63 106 59 96 81 45 349 34 30 352 6 188 170 198 270 311 10 332 93 225 184 210 155 260 207 212 250 105 289 300 353 283 256 286 300 8 271 174 76 278 316 36 252 99 306 297 301 321 295 302 290 320 315 181 15 352 328 17 339 292 307 314 312 320 317 319 320 317 320
50 50 50 48 47 45 42 42 38 36 30 3 24 110 67 10 16 8 1 117 126 113 91 103 91 67 42 53 21 357 332 24 5 340 20 312 4 317 344 341 354 358 333 5 308 338 304 306 42 269 292 283 356 252 282 311 233 121 134 184 218 124 280 317 4 132 309 306 290 239 262 326 345 342 324 321 307 312 313 314 308 312 316 318 316 314 319
51 51 52 52 51 49 46 44 39 33 27 17 24 95 90 2 23 48 53 52 69 71 85 99 81 102 92 62 49 18 333 354 7 335 325 324 145 331 326 315 323 316 11 328 259 250 183 255 330 263 278 280 185 239 3 291 289 121 211 179 273 167 235 36 275 144 159 265 272 285 300 302 317 330 315 310 314 320 316 313 309 312 313 316 311 315 317
50 49 49 49 49 49 49 47 46 44 44 35 56 58 96 94 49 356 108 79 80 92 103 116 125 147 153 125 88 46 53 57 283 311 310 304 292 179 312 310 38 45 306 290 315 308 324 286 275 327 297 269 290 295 211 209 275 135 232 195 237 133 214 307 310 270 260 263 262 277 293 309 310 312 309 310 310 310 320 313 310 310 313 317 317 316 316
54 53 51 49 45 44 47 50 51 51 56 43 57 111 92 72 317 37 77 82 114 118 107 177 206 50 14 13 113 126 238 35 346 340 337 303 315 351 132 84 0 252 186 73 7 301 325 291 305 348 271 326 28 268 290 273 241 176 254 204 221 180 186 197 242 286 315 295 55 317 313 315 311 308 310 306 314 322 319 313 309 311 315 315 315 315 313
60 59 58 54 55 54 53 54 52 58 54 64 74 81 117 90 50 354 85 126 159 144 98 103 57 344 33 96 53 239 90 292 313 286 247 268 279 300 345 25 320 314 346 356 291 255 211 265 237 201 265 94 253 294 63 303 315 115 278 223 155 163 137 257 250 269 262 278 298 308 335 315 303 303 307 316 324 321 318 313 313 312 314 315 316 318 316
57 57 57 56 49 50 56 55 61 60 64 57 60 70 61 62 340 263 299 60 73 83 110 100 84 122 172 233 277 37 88 38 341 259 235 269 253 294 310 317 250 219 271 288 273 265 276 259 284 270 285 286 12 267 286 110 316 162 234 274 354 106 127 259 248 260 265 280 295 332 320 302 282 259 309 323 321 318 314 315 314 314 314 316 317 320 319
45 43 46 52 50 49 56 65 62 68 67 68 76 76 88 83 28 26 16 79 129 83 85 95 102 137 199 143 79 122 126 323 316 301 237 230 250 211 234 267 275 205 225 223 118 291 253 270 238 273 265 340 32 323 339 317 307 279 272 154 119 161 248 268 294 288 288 311 328 342 327 315 307 310 317 318 317 313 312 312 313 315 315 316 317 317 318
45 41 43 52 81 91 85 71 69 78 79 79 78 80 77 75 41 47 9 3 313 74 120 131 160 131 130 183 132 83 81 157 155 197 193 196 193 215 232 256 274 284 283 286 235 210 251 268 300 76 165 50 278 219 197 283 274 262 253 232 171 227 273 314 280 289 288 304 313 321 297 291 294 307 313 312 312 310 308 311 312 312 312 315 316 315 315
45 40 37 34 41 150 171 152 145 112 19 30 110 121 85 70 71 40 25 316 64 94 80 87 110 154 336 76 138 173 137 190 191 219 204 153 174 201 233 260 281 323 268 241 274 290 282 356 57 308 20 358 290 309 123 251 234 259 286 129 164 236 7 256 281 291 289 305 315 310 292 286 296 300 304 304 304 304 307 309 309 309 312 316 316 313 313
42 38 37 36 35 39 153 183 156 127 174 254 227 319 64 109 45 40 15 5 1 103 120 152 145 90 108 189 173 154 160 191 220 228 240 207 169 106 13 322 89 286 272 304 323 292 41 77 302 53 29 345 272 296 253 300 277 269 100 139 155 236 249 259 271 270 284 307 313 308 298 292 291 292 289 292 303 313 310 308 309 311 312 317 315 313 311
36 35 35 34 33 36 55 132 174 153 155 242 263 25 27 80 40 67 7 356 327 55 87 60 84 114 182 90 11 18 359 185 228 216 218 146 69 75 112 272 161 267 268 210 220 34 245 257 214 66 135 36 341 254 279 285 272 283 146 182 197 283 285 277 274 273 285 294 299 297 290 282 283 290 295 302 307 309 306 304 307 310 314 313 308 307 307
35 36 38 39 41 42 41 49 113 181 74 56 52 50 34 326 326 328 335 329 301 209 100 105 125 152 336 146 117 98 294 251 266 219 167 216 167 161 181 283 15 66 332 340 72 203 41 16 313 213 224 35 307 291 284 261 269 295 100 94 331 303 299 297 290 289 292 298 307 305 294 291 296 302 303 310 307 305 302 305 309 311 310 308 307 305 305
30 27 35 44 52 56 59 60 55 69 88 107 110 110 102 12 310 306 332 269 68 52 342 58 54 273 270 77 136 122 282 222 190 338 16 71 10 323 206 157 192 179 107 257 42 339 22 312 222 245 81 42 286 279 268 260 280 51 66 327 308 301 294 294 292 290 286 286 276 275 289 297 299 298 295 295 297 301 305 306 309 311 312 310 308 308 307
10 17 31 15 39 60 68 72 88 106 129 116 42 17 14 3 1 23 305 312 95 94 35 64 79 353 349 138 231 92 357 356 345 5 337 96 338 279 3 291 137 274 34 341 42 258 144 235 327 325 159 146 9 290 275 311 60 18 337 317 304 301 295 288 283 281 281 278 275 272 278 287 292 295 295 294 296 302 306 308 313 312 310 308 307 308 312
360 341 337 24 39 320 141 255 254 19 56 75 123 273 342 352 346 311 345 265 279 32 51 50 347 8 341 248 258 85 341 294 357 39 317 65 37 354 336 301 179 261 87 287 245 21 8 42 329 284 282 95 220 264 271 358 9 343 335 323 331 321 316 310 303 305 302 297 291 286 283 285 288 289 290 296 300 304 310 310 311 311 310 311 315 320 324
343 308 298 280 120 284 252 256 27 337 62 27 44 351 331 331 335 337 7 33 41 99 84 352 16 61 325 333 329 29 304 141 145 277 175 287 214 93 307 308 290 101 285 324 336 315 11 6 322 282 101 248 248 267 9 22 336 330 331 331 332 326 311 307 306 307 301 296 292 291 289 287 285 287 291 295 299 306 309 311 315 317 315 316 320 322 321
339 81 88 138 225 239 34 334 294 38 30 335 312 319 290 273 243 214 326 48 24 20 77 105 79 53 348 325 294 359 359 337 7 333 46 2 338 344 337 282 3 1 237 168 36 14 45 13 270 271 233 280 352 33 31 336 321 320 325 327 322 316 309 305 304 303 299 295 292 291 295 300 298 297 299 303 307 313 318 319 322 324 322 321 321 322 322
138 184 252 267 351 33 352 71 23 14 325 305 318 289 14 6 100 23 18 40 343 22 26 33 86 2 18 295 327 8 314 321 47 343 16 90 292 57 263 298 35 331 333 342 35 2 280 295 301 284 285 341 348 264 265 279 303 315 310 312 311 310 307 305 306 303 302 305 305 307 309 308 308 310 313 313 317 318 318 319 318 318 319 318 317 317 317
161 154 87 39 68 132 2 9 60 318 281 240 263 230 35 359 350 40 12 316 349 40 343 33 54 6 301 284 316 64 24 318 310 343 351 32 355 342 32 343 52 328 269 270 99 12 301 162 95 327 286 316 328 287 242 267 294 305 306 308 307 304 304 299 299 292 288 287 294 302 306 306 310 309 311 309 308 310 314 318 318 319 319 318 315 315 310
5 34 6 340 36 44 56 141 210 279 218 52 10 9 62 350 25 38 316 331 62 64 338 44 9 342 5 8 338 326 37 342 345 343 0 318 70 321 336 270 10 325 311 314 20 353 333 313 8 303 8 58 340 87 253 289 301 318 317 311 308 304 296 293 292 289 285 285 289 291 296 296 299 299 302 304 307 309 314 316 316 316 317 313 314 312 307
55 96 146 28 9 330 341 312 242 52 41 46 39 23 44 33 49 235 318 82 63 12 76 330 202 198 136 282 225 299 69 22 78 291 282 274 79 250 303 334 6 304 265 255 45 352 321 276 255 250 0 357 317 310 298 308 318 326 333 332 320 307 305 301 296 293 292 290 291 293 293 294 296 296 297 300 306 308 310 313 314 314 311 308 308 306 307
8 348 11 50 279 256 260 25 30 12 48 81 107 10 354 236 214 137 31 358 24 351 90 350 350 353 0 358 357 318 347 76 277 314 309 296 28 4 289 309 352 189 304 36 318 237 257 281 290 325 22 346 305 298 306 313 326 327 332 331 323 311 306 304 303 301 294 292 294 298 299 300 296 294 294 301 306 307 307 307 309 310 308 304 303 308 313
308 331 253 267 214 16 349 13 4 57 66 354 26 26 34 49 356 7 349 81 54 301 42 171 227 200 153 240 197 169 345 7 315 6 289 327 351 240 333 300 328 283 323 28 291 326 277 290 290 13 4 349 345 318 308 313 320 329 330 328 326 319 309 304 301 298 295 288 281 279 284 292 292 285 290 293 303 303 305 307 310 310 306 309 313 313 314
243 270 357 359 46 316 355 347 296 29 26 76 84 357 327 22 66 157 316 84 271 218 21 334 22 357 346 79 342 16 132 171 183 238 140 138 294 352 349 298 306 359 193 244 258 274 295 308 260 306 328 334 327 337 338 333 332 332 334 332 320 315 318 315 312 307 298 292 282 279 290 299 302 296 288 288 292 297 306 310 312 310 308 317 317 315 314
270 349 30 9 22 293 41 324 357 86 34 350 65 90 124 8 351 259 336 38 316 9 72 2 305 322 313 48 170 135 281 336 188 278 339 345 303 167 204 315 3 293 328 292 297 257 234 285 9 342 350 342 339 340 341 332 330 333 330 324 329 334 331 329 322 316 308 301 299 301 299 303 303 306 312 313 313 309 304 305 308 317 322 322 317 315 320
59 43 39 51 319 343 61 169 338 44 46 94 58 27 23 47 7 57 61 303 265 170 295 59 219 259 258 71 329 17 27 319 308 53 345 266 331 316 9 294 189 307 297 217 280 301 349 337 344 346 348 340 336 333 331 328 326 330 330 331 333 334 336 333 328 321 315 319 323 319 315 321 323 320 317 319 319 315 309 303 310 318 322 318 317 322 325
103 36 66 102 99 296 31 47 7 47 342 47 44 359 16 33 353 326 355 298 289 47 60 248 318 322 326 346 338 145 146 336 319 47 261 302 270 328 148 6 305 247 315 301 297 316 323 341 347 346 341 337 330 328 326 326 328 332 334 333 333 336 337 335 331 327 325 325 323 324 324 325 328 325 322 314 311 310 309 315 320 318 315 312 321 326 327
50 234 77 47 320 317 8 31 79 132 90 49 73 2 306 290 254 210 169 239 334 230 209 233 252 179 187 158 224 337 15 328 324 107 85 299 264 246 342 5 265 249 207 256 307 346 332 340 346 340 331 325 318 320 324 328 333 335 336 337 338 338 339 335 332 328 327 326 326 329 330 333 334 328 317 312 308 315 325 326 322 313 317 326 330 330 331
88 63 73 130 77 36 90 97 280 89 111 120 150 217 316 227 200 107 141 175 229 195 15 312 32 295 294 73 24 319 170 46 299 333 10 245 73 298 3 294 321 313 203 186 285 320 327 341 348 332 321 318 323 318 323 331 340 339 339 337 333 332 332 330 328 325 327 328 328 334 338 337 324 320 321 325 321 318 324 325 322 328 333 334 331 331 333
45 53 41 55 98 108 10 215 241 90 129 149 185 168 175 244 257 124 145 176 112 136 181 211 212 270 344 351 319 107 149 22 25 305 247 235 160 179 208 278 212 237 326 359 327 332 338 335 336 326 332 328 320 327 336 340 342 333 330 327 324 326 326 328 323 326 332 337 339 341 341 341 337 336 329 325 317 309 313 323 333 334 336 337 335 335 339
37 90 119 270 11 18 327 358 16 354 5 40 12 143 185 204 220 149 164 128 153 208 221 341 20 3 320 331 46 323 3 114 246 214 219 261 101 162 226 251 296 330 318 344 333 335 341 339 338 330 326 325 331 334 333 331 325 316 309 315 322 326 322 325 328 339 338 340 344 345 344 337 332 325 317 302 298 315 326 331 340 342 343 339 338 339 340
33 56 52 28 15 353 341 271 146 8 339 319 268 34 251 252 104 109 164 187 181 258 345 127 242 46 34 278 309 332 214 179 237 3 283 216 181 207 220 239 309 334 335 321 321 335 337 332 339 334 322 323 321 321 316 314 312 309 328 336 328 330 329 334 342 345 342 341 343 344 333 320 323 325 325 325 332 338 340 335 336 341 342 338 336 338 341